Location: Pinehill
(32.1047°N, 94.6054°W)
Time: 23:03:56
(UTC+00:00)

X-37B - Visible Passes

Search period start: 08 August 2022 00:00
Search period end: 18 August 2022 00:00
Orbit: 328 x 343 km, 45.0° (Epoch: 27 July)

Date Brightness Start Highest point End Pass type
(mag) Time Alt. Az. Time Alt. Az. Time Alt. Az.
08 Aug 3.4 09:44:14 10° NNW 09:44:21 10° NNW 09:44:42 10° N visible
12 Aug 3.3 11:06:29 10° NNW 11:08:11 14° NNE 11:09:54 10° ENE visible
14 Aug 3.4 10:11:56 10° NNW 10:13:38 14° NNE 10:15:20 10° ENE visible
15 Aug 2.3 10:31:43 10° NW 10:34:20 30° NNE 10:36:56 10° E visible
16 Aug 3.8 09:19:59 13° NE 09:19:59 13° NE 09:20:44 10° NE visible
16 Aug 0.2 10:51:57 10° WNW 10:54:50 80° SW 10:57:42 10° SE visible
17 Aug 2.9 09:40:53 22° ENE 09:40:53 22° ENE 09:42:22 10° E visible
17 Aug 1.8 11:12:52 10° W 11:15:09 21° SW 11:17:24 10° S visible
